Погода в Бено-Юрте

Россия / Чеченская Республика     43°41′18″N   45°03′07″E
темп.,
°C
ветер,
м/с
пор.,
м/с
влажн.,
%
обл.,
%
осадки,
мм/ч
давл.,
гПа
погр.,
м
15 мая, сб
сб1500:00+17юв22650 0.0 101114
03:00+17сз11790 0.0 101111
06:00+18зсз24773 0.0 1012106
09:00+24зсз23635 0.0 1012523
12:00+29зсз00515 0.0 10121176
15:00+31вюв11460 0.0 10111582
18:00+29в235695 0.1 101178
21:00+20вюв356397 0.8 101282
16 мая, вс
вс1600:00+19юв1176100 0.0 101115
03:00+18в11835 0.0 101011
06:00+19в12775 0.0 101075
09:00+24всв22543 0.0 1010514
12:00+28в33405 0.0 1008853
15:00+31вюв45355 0.0 10051424
18:00+25в510460 0.0 1005263
21:00+19всв35443 0.0 100682
17 мая, пн
пн1700:00+18в224666 0.0 100515
03:00+17юв00505 0.0 100411
06:00+18вюв22635 0.0 100561
09:00+24в344453 0.0 1005425
12:00+30в44340 0.0 1004801
15:00+32в45292 0.0 10031168
18:00+26всв46515 0.0 1003111
21:00+21з142071100 0.1 1007551
18 мая, вт
вт1800:00+19з498798 0.1 1007255
03:00+17з61289100 0.1 1008524
06:00+18з71185100 0.3 1010747
09:00+18зсз71081100 0.4 1011841
12:00+20зсз6875100 0.6 1012892
15:00+22зсз3566100 0.9 10121121
18:00+22сз246412 0.1 1012655
21:00+18зюз338077 0.1 101332
19 мая, ср
ср1900:00+16зюз3486100 0.0 101359
03:00+15з33875 0.0 101439
06:00+17з34813 0.0 1015126
09:00+22сз22600 0.0 1014719
12:00+27св22440 0.0 10141330
15:00+28всв333654 0.0 10131532
18:00+27вюв224812 0.0 101324
21:00+20юв22555 0.0 101314